TimeMST,TemperatureF,Dew PointF,Humidity,Sea Level PressureIn,VisibilityMPH,Wind Direction,Wind SpeedMPH,Gust SpeedMPH,PrecipitationIn,Events,Conditions,WindDirDegrees,DateUTC
12:53 AM,66.0,43.0,43,29.68,10.0,SW,10.4,-,N/A,,Overcast,220,2013-10-10 07:53:00
1:53 AM,64.9,39.9,40,29.69,10.0,SSW,10.4,-,N/A,,Overcast,200,2013-10-10 08:53:00
2:53 AM,64.0,39.0,40,29.68,10.0,SSW,13.8,-,N/A,,Partly Cloudy,210,2013-10-10 09:53:00
3:53 AM,62.1,39.0,43,29.70,10.0,SSW,9.2,-,N/A,,Scattered Clouds,210,2013-10-10 10:53:00
4:53 AM,57.9,44.1,60,29.74,10.0,WNW,17.3,21.9,N/A,,Mostly Cloudy,290,2013-10-10 11:53:00
5:53 AM,53.1,48.9,86,29.79,6.0,West,9.2,-,0.01,Rain,Rain,280,2013-10-10 12:53:00
6:53 AM,52.0,46.9,83,29.82,9.0,WNW,11.5,-,0.03,Rain,Light Rain,290,2013-10-10 13:53:00
7:53 AM,52.0,46.9,83,29.84,4.0,NW,6.9,-,0.03,Rain,Rain,320,2013-10-10 14:53:00
8:53 AM,53.1,46.0,77,29.89,10.0,Calm,Calm,-,0.00,,Overcast,0,2013-10-10 15:53:00
9:53 AM,57.0,46.9,69,29.91,10.0,SW,8.1,-,N/A,,Clear,220,2013-10-10 16:53:00
10:53 AM,60.1,44.1,55,29.91,10.0,SW,6.9,-,N/A,,Clear,220,2013-10-10 17:53:00
11:53 AM,61.0,42.1,50,29.92,10.0,SW,3.5,-,N/A,,Mostly Cloudy,220,2013-10-10 18:53:00
12:53 PM,64.0,39.9,41,29.92,10.0,WSW,12.7,21.9,N/A,,Clear,240,2013-10-10 19:53:00
1:53 PM,66.0,39.9,38,29.90,10.0,WNW,4.6,16.1,N/A,,Clear,290,2013-10-10 20:53:00
2:53 PM,66.0,39.0,37,29.91,10.0,Calm,Calm,-,N/A,,Clear,0,2013-10-10 21:53:00
3:53 PM,66.0,39.0,37,29.89,10.0,WSW,5.8,-,N/A,,Clear,250,2013-10-10 22:53:00
4:53 PM,66.0,37.9,36,29.89,10.0,NW,4.6,-,N/A,,Clear,320,2013-10-10 23:53:00
5:53 PM,64.9,37.9,37,29.91,10.0,Calm,Calm,-,N/A,,Clear,0,2013-10-11 00:53:00
6:53 PM,64.9,39.0,39,29.91,10.0,Calm,Calm,-,N/A,,Clear,0,2013-10-11 01:53:00
7:53 PM,62.1,41.0,46,29.92,10.0,NNE,3.5,-,N/A,,Clear,30,2013-10-11 02:53:00
8:53 PM,61.0,41.0,48,29.93,10.0,Calm,Calm,-,N/A,,Clear,0,2013-10-11 03:53:00
9:53 PM,60.1,41.0,49,29.93,10.0,NE,5.8,-,N/A,,Clear,50,2013-10-11 04:53:00
10:53 PM,57.9,42.1,56,29.94,10.0,East,4.6,-,N/A,,Clear,80,2013-10-11 05:53:00
11:53 PM,57.0,41.0,55,29.94,10.0,NNE,10.4,-,N/A,,Clear,30,2013-10-11 06:53:00